Preview of NWS' New Version of Forecast
This preview is not operational and should not be used for support decisions.

Regional Weather Roundup (RWR)

Issued by National Weather Service (NWS)

                            
000
ASUS44 KMEG 211300
RWRTN 
TENNESSEE HOURLY STATE WEATHER ROUNDUP
NATIONAL WEATHER SERVICE MEMPHIS TN
800 AM CDT SUN JUL 21 2019

TNZ002-004-019-021-049-052-054-088>092-211400-
WEST TENNESSEE
  
CITY           SKY/WX    TMP DP  RH WIND       PRES   REMARKS
MEMPHIS INTL   FAIR      79  75  87 SW7       30.00S                  
NWS MEMPHIS      N/A     78 N/A N/A MISG        N/A                   
JACKSON        CLOUDY    76  74  93 SE5       30.02R                  
DYERSBURG      PTSUNNY   78  76  93 SW3       30.00S                  
HUNTINGDON     CLOUDY    77  75  94 S3        30.00S                  
LEXINGTON      PTSUNNY   73  72  94 SW6       30.01S                  
SELMER         PTSUNNY   75  73  94 CALM      30.03R FOG              
$$

TNZ008-025-027-028-033-062-065-066-211400-
NORTH MIDDLE TENNESSEE
  
CITY           SKY/WX    TMP DP  RH WIND       PRES   REMARKS
NASHVILLE      CLOUDY    76  71  85 W5        30.03S                  
PORTLAND       CLOUDY    73  72  94 SW6       30.02S                  
CLARKSVILLE    CLOUDY    75  74  96 SW7       30.01R                  
LEBANON        CLOUDY    75  73  94 S6        30.01S                  
SMYRNA         PTSUNNY   74  73  97 S6        30.04S                  
MURFREESBORO   CLOUDY    77  73  88 S8        30.02S                  
COOKEVILLE     CLOUDY    73  72  94 CALM      30.07R                  
LIVINGSTON     CLOUDY    73  72  94 SW5       30.06S                  
GALLATIN       CLOUDY    75  73  94 CALM      30.05S                  
CROSSVILLE     CLOUDY    72  69  90 VRB5      30.11S                  
$$

TNZ061-075-076-078-094-096-097-211400-
SOUTH MIDDLE TENNESSEE
  
CITY           SKY/WX    TMP DP  RH WIND       PRES   REMARKS
LEWISBURG      CLOUDY    75  73  94 SW5       30.04S                  
FAYETTEVILLE   CLOUDY    75  73  94 SW5       30.06S                  
TULLAHOMA      MOSUNNY   75  73  94 VRB3      30.06R                  
WINCHESTER     CLOUDY    75  72  88 CALM      30.07S                  
$$

TNZ017-018-042-046-047-211400-
NORTHEAST TENNESSEE
  
CITY           SKY/WX    TMP DP  RH WIND       PRES   REMARKS
TRI CITIES     CLOUDY    75  72  90 CALM      30.10R FOG              
$$

TNZ012-013-036-069-073-074-211400-
CENTRAL EAST TENNESSEE
  
CITY           SKY/WX    TMP DP  RH WIND       PRES   REMARKS
KNOXVILLE      CLOUDY    76  71  85 SW7       30.06R                  
OAK RIDGE      CLOUDY    78  72  81 S6        30.07S                  
GATLINBURG     MOSUNNY   75  73  94 CALM      30.07R                  
MORRISTOWN     CLOUDY    73  73 100 SW5       30.07S                  
JACKSBORO      CLOUDY    75  73  94 NE3       30.11R                  
$$

TNZ083-085-099-211400-
SOUTHEAST TENNESSEE
  
CITY           SKY/WX    TMP DP  RH WIND       PRES   REMARKS
CHATTANOOGA    PTSUNNY   76  72  87 S3        30.08R                  
$$

SKY/WX REPORTED AS FAIR MEANS FEW OR NO CLOUDS BELOW
12 THOUSAND FEET.